Location: Unspecified
(0.0000°N, 0.0000°E)
Time: 16:28:24
(UTC+01:00)

USA 116 - Visible Passes

Search period start: 06 February 2016 00:00
Search period end: 16 February 2016 00:00
Orbit: 405 x 834 km, 97.9° (Epoch: 18 November)

Date Brightness Start Highest point End Pass type
(mag) Time Alt. Az. Time Alt. Az. Time Alt. Az.
06 Feb 7.3 04:30:05 10° E 04:30:42 10° ENE 04:31:20 10° ENE visible
06 Feb 4.6 06:01:20 10° S 06:06:06 49° WSW 06:11:04 11° NNW visible
07 Feb 7.0 04:41:41 10° ESE 04:44:47 16° ENE 04:47:57 10° NE visible
07 Feb 5.1 06:15:48 10° SSW 06:20:16 33° W 06:24:59 10° NW visible
08 Feb 6.5 04:54:47 10° SE 04:58:52 24° ENE 05:03:02 10° NNE visible
08 Feb 5.6 06:30:31 10° SSW 06:34:25 23° W 06:38:30 10° NW visible
09 Feb 5.8 05:08:18 10° SE 05:12:58 36° ENE 05:17:29 12° NNE visible
09 Feb 6.0 06:45:39 10° SW 06:48:34 15° W 06:51:34 10° WNW visible
10 Feb 5.1 05:22:03 10° SSE 05:27:05 53° ENE 05:31:56 12° N visible
11 Feb 4.5 05:36:01 10° SSE 05:41:13 80° ENE 05:46:23 11° N visible
12 Feb 4.4 05:50:10 10° S 05:55:21 70° WSW 06:00:42 10° NNW visible
13 Feb 7.3 04:32:01 10° E 04:34:00 12° ENE 04:36:00 10° NE visible
13 Feb 4.7 06:04:28 10° S 06:09:29 46° WSW 06:14:38 10° NNW visible
14 Feb 6.9 04:44:31 10° ESE 04:48:06 18° ENE 04:51:42 10° NE visible
14 Feb 5.2 06:19:00 10° SSW 06:23:37 32° WSW 06:28:20 10° NW visible
15 Feb 6.4 04:57:47 10° SE 05:02:13 27° ENE 05:06:40 10° NNE visible
15 Feb 5.7 06:33:47 10° SSW 06:37:46 22° WSW 06:41:47 10° NW visible
